STARLINK-35040

Last updated on Mon Sep 15 2025 00:02:08 GMT+0000 (Coordinated Universal Time)

1 65480U 25195Y 25257.13569957 -.00723687 00000+0 -41199-2 0 9991 2 65480 53.1546 4.5903 0001447 187.8202 172.2798 15.80124016 2853
UTC large
Height (km)
Speed (km/s)
/
Latitude / Longitude
Inclination (degrees)
Orbital Period (minutes)
Azimuth
Elevation
Range (km)
Doppler Factor

Next 0 passes for location: London (51.5072 / 0.1276)

Sorry there are no passes over London.